Weather History for KBNA - July, 2013

Change the Weather History Date:

Tuesday, July 23, 2013

  Actual Average Record
Temperature  
Mean Temperature 81 °F 80 °F  
Max Temperature 92 °F 89 °F 103 °F (1952)
Min Temperature 70 °F 70 °F 51 °F (1947)
Degree Days  
Heating Degree Days 0 0  
Month to date heating degree days 0 0  
Since 1 June heating degree days 0 3  
Since 1 July heating degree days 0 0  
Cooling Degree Days 16 15  
Month to date cooling degree days 322 333  
Year to date cooling degree days 899 836  
Since 1 June cooling degree days 692 657  
Growing Degree Days 30 (Base 50)    
Moisture  
Dew Point 70 °F    
Average Humidity 72    
Maximum Humidity 93    
Minimum Humidity 50    
Precipitation  
Precipitation 0.00 in 0.12 in 2.29 in (1951)
Month to date precipitation 6.09 2.77  
Year to date precipitation 35.01 28.21  
Snow  
Snow 0.00 in 0.00 in 0.00 in (2002)
Month to date snowfall 0.0 0.0  
Since 1 June snowfall 0.0 0.0  
Since 1 July snowfall 0.0 0.0  
Snow Depth 0.00 in    
Sea Level Pressure  
Sea Level Pressure 29.87 in    
Wind  
Wind Speed 6 mph (WSW)    
Max Wind Speed 15 mph    
Max Gust Speed 21 mph    
Visibility 10 miles    
Events      
T = Trace of Precipitation, MM = Missing Value Source: NWS Daily Summary

Daily Weather History Graph

Daily Weather History Graph

Search for Another Location

Airport or City:

Trip Planner

Search our weather history database for the weather conditions in past years. The results will help you decide how hot, cold, wet, or windy it might be!

Date:

Astronomy

Jul. 23, 2013 Rise Set
Actual Time 5:47 AM CDT 7:58 PM CDT
Civil Twilight 5:18 AM CDT 8:27 PM CDT
Nautical Twilight 4:42 AM CDT 9:03 PM CDT
Astronomical Twilight 4:04 AM CDT 9:41 PM CDT
Moon 8:31 PM CDT (7/23) 6:51 AM CDT (7/23)
Length of Visible Light 15h 09m
Length of Day
14h 11m
Full, 99% of the Moon is Illuminated
Jul 23
Full
Jul 29
Last Quarter
Aug 6
New
Aug 14
First Quarter
Aug 20
Full

Hourly Weather History & Observations

Time (CDT) Temp. Heat Index Dew Point Humidity Pressure Visibility Wind Dir Wind Speed Gust Speed Precip Events Conditions
12:53 AM 72.0 °F - 69.1 °F 91% 29.92 in 10.0 mi SSW 4.6 mph - N/A   Partly Cloudy
1:53 AM 71.1 °F - 69.1 °F 93% 29.92 in 10.0 mi SSW 4.6 mph - N/A   Partly Cloudy
2:53 AM 71.1 °F - 69.1 °F 93% 29.91 in 10.0 mi South 3.5 mph - N/A   Clear
3:53 AM 71.1 °F - 69.1 °F 93% 29.90 in 10.0 mi SSW 3.5 mph - N/A   Scattered Clouds
4:53 AM 71.1 °F - 69.1 °F 93% 29.88 in 10.0 mi SSW 4.6 mph - N/A   Mostly Cloudy
5:53 AM 71.1 °F - 69.1 °F 93% 29.88 in 10.0 mi Calm Calm - N/A   Mostly Cloudy
6:53 AM 72.0 °F - 70.0 °F 93% 29.87 in 10.0 mi South 5.8 mph - N/A   Mostly Cloudy
7:00 AM 71.6 °F - 69.8 °F 94% 29.89 in 9.0 mi South 5.8 mph - N/A   Mostly Cloudy
7:07 AM 73.4 °F - 69.8 °F 88% 29.89 in 8.0 mi SSW 6.9 mph - N/A   Mostly Cloudy
7:13 AM 73.4 °F - 71.6 °F 94% 29.90 in 8.0 mi SSW 6.9 mph - N/A   Mostly Cloudy
7:53 AM 75.9 °F - 72.0 °F 87% 29.88 in 10.0 mi SSW 8.1 mph - N/A   Mostly Cloudy
8:22 AM 78.8 °F - 71.6 °F 78% 29.90 in 10.0 mi SSW 6.9 mph - N/A   Mostly Cloudy
8:53 AM 80.1 °F 83.8 °F 72.0 °F 76% 29.89 in 10.0 mi Variable 4.6 mph - N/A   Mostly Cloudy
9:15 AM 80.6 °F 85.4 °F 73.4 °F 79% 29.92 in 10.0 mi SW 5.8 mph - N/A   Overcast
9:53 AM 79.0 °F - 73.0 °F 82% 29.91 in 10.0 mi WSW 5.8 mph - N/A   Overcast
10:53 AM 82.9 °F 88.8 °F 73.0 °F 72% 29.88 in 10.0 mi West 9.2 mph - N/A   Mostly Cloudy
11:26 AM 84.2 °F 89.6 °F 71.6 °F 66% 29.89 in 10.0 mi WNW 9.2 mph - N/A   Mostly Cloudy
11:53 AM 86.0 °F 91.5 °F 71.1 °F 61% 29.86 in 10.0 mi NW 12.7 mph 20.7 mph N/A   Mostly Cloudy
12:00 PM 84.2 °F 89.6 °F 71.6 °F 66% 29.88 in 10.0 mi NW 9.2 mph 20.7 mph N/A   Mostly Cloudy
12:53 PM 88.0 °F 92.9 °F 70.0 °F 55% 29.86 in 10.0 mi NW 5.8 mph - N/A   Mostly Cloudy
1:53 PM 90.0 °F 95.4 °F 70.0 °F 52% 29.85 in 10.0 mi NNW 10.4 mph - N/A   Mostly Cloudy
2:53 PM 90.0 °F 95.4 °F 70.0 °F 52% 29.84 in 10.0 mi West 5.8 mph - N/A   Mostly Cloudy
3:53 PM 88.0 °F 90.7 °F 66.9 °F 49% 29.82 in 10.0 mi NW 6.9 mph - N/A   Mostly Cloudy
4:53 PM 89.1 °F 93.7 °F 69.1 °F 52% 29.81 in 10.0 mi Variable 6.9 mph - N/A   Mostly Cloudy
5:53 PM 89.1 °F 92.9 °F 68.0 °F 50% 29.80 in 10.0 mi WNW 8.1 mph - N/A   Mostly Cloudy
6:53 PM 84.9 °F 87.6 °F 66.9 °F 55% 29.81 in 10.0 mi West 4.6 mph - N/A   Mostly Cloudy
7:53 PM 82.9 °F 85.0 °F 66.0 °F 56% 29.83 in 10.0 mi West 3.5 mph - N/A   Scattered Clouds
8:53 PM 80.1 °F 83.2 °F 70.0 °F 71% 29.83 in 10.0 mi SW 3.5 mph - N/A   Scattered Clouds
9:53 PM 79.0 °F - 69.1 °F 72% 29.87 in 10.0 mi West 8.1 mph - N/A   Scattered Clouds
10:53 PM 77.0 °F - 70.0 °F 79% 29.86 in 10.0 mi WSW 4.6 mph - N/A   Mostly Cloudy
11:53 PM 77.0 °F - 71.1 °F 82% 29.87 in 10.0 mi WSW 4.6 mph - N/A   Overcast